Home > Weather > Washington DC > Past weeks

Flag for USA Past Weather in Washington DC, USA — Yesterday and Last 2 Weeks

Now
81 °F

Cloudy.


Feels Like: 86 °F
Forecast: 75 / 90 °F
Wind: 10 mph from Northeast

Location: Reagan National Airport

Current Time: Jul 28, 2016 at 6:31:13 PM

Latest Report: Jul 28, 2016 at 5:52 PM


Visibility: 10 mi

Pressure: 29.81 "Hg

Humidity: 77%

Dew Point: 73 °F

Location of Washington DCLocation

Past Weather in Washington DC — Graph

°F

Washington DC Temperature Yesterday

Maximum temperature yesterday: 95 °F (at 1:52 PM)
Minimum temperature yesterday: 81 °F (at 5:52 AM)
Average temperature yesterday: 87 °F

High & Low Weather Summary for the Past Weeks

 TemperatureHumidityPressure
High99 °F (Jul 25, 3:52 PM)93% (Jul 20, 4:52 AM)30.22 "Hg (Jul 20, 4:52 AM)
Low70 °F (Jul 19, 11:52 PM)33% (Jul 27, 12:52 PM)29.80 "Hg (Jul 28, 3:52 PM)
Average84 °F64%30.01 "Hg
* Reported Jul 13 4:52 PM — Jul 28 4:55 PM, Washington DC, Weather by CustomWeather, © 2016

Note: Actual official high and low records may vary slightly from our data, if they occured in-between our weather recording intervals... More about our weather records

Advertising

Washington DC Weather History for the Previous 24 Hours

Scroll right to see more
 ConditionsComfort  
Time TempWeatherWind HumidityBarometerVisibility
4:55 PM
Thu, Jul 28
85 °FBroken clouds.13 mph61%29.82 "Hg10 mi
4:52 PM85 °FBroken clouds.10 mph59%29.82 "Hg10 mi
3:52 PM93 °FBroken clouds.10 mph54%29.80 "Hg10 mi
2:52 PM94 °FScattered clouds.12 mph54%29.83 "Hg10 mi
1:52 PM91 °FScattered clouds.9 mph60%29.85 "Hg10 mi
12:52 PM90 °FBroken clouds.9 mph59%29.87 "Hg10 mi
11:52 AM88 °FPartly sunny.7 mph63%29.89 "Hg10 mi
10:52 AM88 °FPartly sunny.8 mph65%29.90 "Hg10 mi
9:52 AM87 °FPartly sunny.5 mph65%29.89 "Hg10 mi
8:52 AM86 °FPartly sunny.3 mph70%29.91 "Hg10 mi
7:52 AM84 °FPartly sunny.3 mph72%29.91 "Hg10 mi
6:52 AM83 °FPartly cloudy.3 mph74%29.90 "Hg10 mi
5:52 AM82 °FPassing clouds.3 mph74%29.89 "Hg10 mi
4:52 AM82 °FOvercast.No wind74%29.90 "Hg10 mi
3:52 AM82 °FPassing clouds.3 mph79%29.90 "Hg10 mi
2:52 AM82 °FPassing clouds.No wind79%29.90 "Hg10 mi
1:52 AM82 °FPassing clouds.7 mph82%29.91 "Hg10 mi
12:52 AM83 °FPassing clouds.5 mph74%29.91 "Hg10 mi
11:52 PM
Wed, Jul 27
84 °FPassing clouds.8 mph72%29.90 "Hg10 mi
10:52 PM85 °FPartly cloudy.9 mph68%29.91 "Hg10 mi
9:52 PM86 °FPartly cloudy.6 mph65%29.91 "Hg10 mi
8:52 PM88 °FSunny.8 mph59%29.89 "Hg10 mi
7:52 PM90 °FBroken clouds.8 mph50%29.90 "Hg10 mi
6:52 PM92 °FBroken clouds.7 mph43%29.89 "Hg10 mi
Weather by CustomWeather, © 2016

See weather overviewHow to use our weather pages